1532156401.13,62978,18.5,74036.8,16.21,-18.89,-20.53,0,*47
1532156402.42,62979,18.5,74034.8,16.21,-18.55,-20.35,0,*47
1532156403.66,62980,18.5,74038.3,16.21,-18.69,-20.59,0,*44
1532156404.94,62981,18.5,74034.5,16.21,-18.35,-20.19,0,*48
1532156406.2,62982,18.5,74032.3,16.21,-18.35,-20.09,0,*4A
1532156407.48,62983,18.5,74034.5,16.21,-17.03,-18.55,0,*43
1532156408.75,62984,18.5,74038.8,16.21,-16.41,-17.97,0,*42
1532156410.03,62985,18.5,74034.3,16.21,-16.13,-17.79,0,*44
1532156411.25,62986,18.5,74034.3,16.23,-16.45,-18.11,0,*47
1532156412.49,62987,18.5,74036.0,16.27,-17.07,-18.65,0,*46
1532156413.71,62988,18.5,74036.5,16.27,-18.65,-20.39,0,*40
1532156414.92,62989,18.5,74038.8,16.27,-17.69,-19.37,0,*46
1532156416.14,62990,18.5,74034.8,16.27,-16.59,-18.11,0,*49
1532156417.38,62991,18.5,74036.5,16.27,-16.65,-18.45,0,*46
1532156418.67,62992,18.5,74038.5,16.29,-17.25,-18.93,0,*45
1532156419.9,62993,18.5,74034.5,16.29,-16.93,-18.73,0,*46
1532156421.11,62994,18.5,74036.3,16.31,-17.35,-19.03,0,*43
1532156422.33,62995,18.5,74036.8,16.33,-17.31,-18.99,0,*46
1532156423.59,62996,18.5,74036.8,16.33,-16.51,-18.17,0,*44
1532156424.85,62997,18.5,74038.0,16.33,-16.75,-18.35,0,*43
1532156426.14,62998,18.5,74042.0,16.33,-16.23,-17.97,0,*48
1532156427.37,62999,18.5,74036.0,16.33,-17.73,-19.47,0,*4E
1532156428.66,63000,18.5,74036.8,16.37,-16.17,-17.59,0,*40
1532156429.89,63001,18.5,74034.0,16.39,-15.67,-17.21,0,*44
1532156431.14,63002,18.5,74036.0,16.41,-15.99,-17.63,0,*4F
1532156432.36,63003,18.5,74036.5,16.41,-17.31,-18.83,0,*4F
1532156433.65,63004,18.5,74034.8,16.41,-15.57,-17.07,0,*49
1532156434.88,63005,18.5,74038.0,16.43,-14.69,-16.17,0,*46
1532156436.16,63006,18.5,74038.3,16.47,-14.93,-16.31,0,*40
1532156437.37,63007,18.5,74038.0,16.49,-15.11,-16.75,0,*44
1532156438.66,63008,18.5,74036.8,16.51,-16.09,-17.63,0,*4E
1532156439.89,63009,18.5,74036.0,16.53,-15.81,-17.35,0,*4D
1532156441.09,63010,18.5,74032.0,16.53,-15.29,-16.89,0,*41
1532156442.33,63011,18.5,74040.5,16.59,-14.15,-15.67,0,*47
1532156443.57,63012,18.5,74038.3,16.59,-14.37,-16.03,0,*45
1532156444.8,63013,18.5,74036.3,16.61,-15.01,-16.59,0,*44
1532156446.05,63014,18.5,74036.8,16.65,-15.43,-17.21,0,*4F
1532156447.28,63015,18.5,74036.8,16.65,-14.65,-16.27,0,*4C
1532156448.53,63016,18.5,74036.8,16.67,-14.79,-16.37,0,*41
1532156449.75,63017,18.5,74036.3,16.69,-15.21,-16.89,0,*47
1532156450.99,63018,18.5,74036.0,16.71,-15.21,-16.89,0,*41
1532156452.27,63019,18.5,74036.3,16.71,-15.85,-17.41,0,*4B
1532156453.48,63020,18.5,74038.3,16.73,-15.25,-16.75,0,*4F
1532156454.71,63021,18.5,74038.0,16.75,-15.11,-16.75,0,*4F
1532156455.97,63022,18.5,74036.8,16.75,-15.25,-16.69,0,*46
1532156457.22,63023,18.5,74036.3,16.77,-15.35,-16.93,0,*41
1532156458.46,63024,18.5,74038.3,16.81,-15.75,-17.35,0,*46
1532156459.72,63025,18.5,74040.0,16.81,-15.71,-17.41,0,*40
1532156460.92,63026,18.5,74034.5,16.83,-16.03,-17.69,0,*4D
1532156462.13,63027,18.5,74034.5,16.83,-17.69,-19.47,0,*43
1532156463.34,63028,18.5,74036.8,16.83,-17.31,-19.13,0,*40
1532156464.59,63029,18.5,74034.8,16.77,-17.17,-18.99,0,*4D
1532156465.82,63030,18.5,74034.0,16.77,-16.55,-18.21,0,*41
1532156467.07,63031,18.5,74042.5,16.77,-17.31,-18.93,0,*4A
1532156468.32,63032,18.5,74038.0,16.77,-16.83,-18.59,0,*47
1532156469.6,63033,18.5,74038.8,16.75,-17.63,-19.31,0,*44
1532156470.83,63034,18.5,74036.8,16.75,-16.55,-18.41,0,*41
1532156472.07,63035,18.5,74034.3,16.77,-17.11,-19.07,0,*40
1532156473.32,63036,18.5,74032.3,16.81,-15.01,-16.83,0,*4A
1532156474.6,63037,18.5,74036.8,16.81,-14.75,-16.51,0,*46
1532156475.83,63038,18.5,74036.8,16.83,-13.79,-15.53,0,*41
1532156477.06,63039,18.5,74032.8,16.85,-14.89,-16.79,0,*45
1532156478.27,63040,18.5,74036.3,16.87,-15.53,-17.31,0,*42
1532156479.53,63041,18.5,74040.8,16.89,-15.53,-17.45,0,*4E
1532156480.78,63042,18.5,74036.0,16.89,-14.93,-16.83,0,*4B
1532156482.01,63043,18.5,74034.5,16.91,-15.07,-17.21,0,*46
1532156483.27,63044,18.5,74038.5,16.91,-15.81,-18.01,0,*42
1532156484.49,63045,18.5,74038.5,16.93,-15.53,-18.21,0,*4C
1532156485.71,63046,18.5,74036.0,16.93,-14.69,-17.69,0,*44
1532156486.94,63047,18.5,74034.3,16.91,-15.43,-18.79,0,*40
1532156488.14,63048,18.5,74038.3,16.91,-16.03,-19.51,0,*43
1532156489.4,63049,18.5,74036.8,16.91,-15.89,-19.23,0,*46
1532156490.63,63050,18.5,74036.0,16.91,-15.75,-19.31,0,*4E
1532156491.86,63051,18.5,74038.5,16.91,-15.21,-18.65,0,*4E
1532156493.11,63052,18.5,74038.5,16.91,-16.23,-19.65,0,*4D
1532156494.35,63053,18.5,74036.0,16.91,-16.09,-19.03,0,*44
1532156495.57,63054,18.5,74036.8,16.87,-15.21,-17.87,0,*4F
1532156496.83,63055,18.5,74038.0,16.87,-14.75,-17.17,0,*47
1532156498.11,63056,18.5,74036.3,16.89,-14.75,-16.65,0,*4E
1532156499.37,63057,18.5,74040.0,16.91,-13.83,-15.57,0,*4A
1532156500.63,63058,18.5,74036.8,16.93,-13.79,-15.71,0,*46
1532156501.86,63059,18.5,74036.8,16.91,-15.67,-17.45,0,*49
1532156503.13,63060,18.5,74036.3,16.95,-14.47,-16.09,0,*4D
1532156504.35,63061,18.5,74036.0,16.97,-14.65,-16.41,0,*42
1532156505.59,63062,18.5,74034.5,16.95,-14.83,-16.55,0,*4E
1532156506.86,63063,18.5,74036.0,16.97,-15.39,-16.51,0,*49
1532156508.11,63064,18.5,74036.5,16.97,-14.65,-16.51,0,*46
1532156509.35,63065,18.5,74036.5,16.99,-18.31,-20.09,0,*4C
1532156510.59,63066,18.5,74036.5,16.95,-16.41,-17.45,0,*46
1532156511.81,63067,18.5,74036.0,16.97,-15.63,-17.73,0,*43
1532156513.07,63068,18.5,74038.5,16.95,-18.35,-20.35,0,*46
1532156514.32,63069,18.5,74036.0,16.93,-16.65,-18.73,0,*43
1532156515.58,63070,18.5,74034.8,16.95,-17.17,-19.23,0,*4D
1532156516.83,63071,18.5,74038.8,16.91,-16.23,-18.01,0,*4F
1532156518.07,63072,18.5,74036.3,16.93,-15.67,-17.35,0,*45
1532156519.31,63073,18.5,74038.3,16.91,-15.01,-16.51,0,*45
1532156520.53,63074,18.5,74036.0,16.93,-15.71,-16.93,0,*49
1532156521.78,63075,18.5,74038.8,16.95,-13.97,-15.25,0,*4E
1532156523.03,63076,18.5,74040.5,16.95,-14.79,-17.17,0,*49
1532156524.29,63077,18.5,74040.8,16.95,-18.31,-20.99,0,*4A
1532156525.5,63078,18.5,74040.5,16.95,-19.37,-21.63,0,*46
1532156526.74,63079,18.5,74038.8,16.91,-17.97,-20.39,0,*49
1532156527.96,63080,18.5,74042.0,16.91,-18.25,-20.39,0,*49
1532156529.17,63081,18.5,74038.5,16.91,-17.83,-19.95,0,*47
1532156530.38,63082,18.5,74036.5,16.91,-18.65,-20.93,0,*4F
1532156531.64,63083,18.5,74034.0,16.89,-19.75,-22.17,0,*49
1532156532.88,63084,18.5,74038.0,16.87,-18.93,-21.13,0,*4E
1532156534.09,63085,18.5,74036.0,16.87,-19.07,-21.39,0,*4B
1532156535.32,63086,18.5,74038.5,16.87,-18.65,-20.99,0,*46
1532156536.55,63087,18.5,74034.3,16.83,-19.95,-22.21,0,*4C
1532156537.77,63088,18.5,74036.5,16.83,-18.21,-20.25,0,*4B
1532156539.02,63089,18.5,74036.8,16.81,-18.73,-20.79,0,*46
1532156540.26,63090,18.5,74034.5,16.81,-18.41,-20.59,0,*4D
1532156541.49,63091,18.5,74038.8,16.83,-18.21,-20.19,0,*4C
1532156542.75,63092,18.5,74036.0,16.81,-17.41,-19.51,0,*42
1532156544.02,63093,18.5,74034.0,16.81,-18.31,-20.09,0,*4C
1532156545.28,63094,18.5,74038.3,16.81,-18.31,-20.29,0,*49
1532156546.54,63095,18.5,74036.8,16.77,-18.83,-20.83,0,*48
1532156547.8,63096,18.5,74034.8,16.81,-19.51,-21.53,0,*40
1532156549.02,63097,18.5,74036.3,16.77,-19.71,-21.73,0,*48
1532156550.28,63098,18.5,74032.3,16.75,-19.61,-21.63,0,*45
1532156551.53,63099,18.5,74038.5,16.75,-20.19,-22.37,0,*43
1532156552.77,63100,18.5,74036.0,16.73,-19.17,-21.03,0,*44
1532156553.97,63101,18.5,74034.3,16.73,-17.83,-19.91,0,*46
1532156555.2,63102,18.5,74036.5,16.71,-19.47,-21.47,0,*41
1532156556.47,63103,18.5,74036.5,16.71,-18.69,-20.53,0,*49
1532156557.7,63104,18.5,74038.5,16.71,-18.17,-20.09,0,*48
1532156558.98,63105,18.5,74036.0,16.71,-19.31,-21.33,0,*44
1532156560.21,63106,18.5,74036.8,16.69,-18.83,-20.83,0,*4C
1532156561.48,63107,18.5,74038.5,16.69,-19.31,-21.23,0,*4E
1532156562.71,63108,18.5,74034.8,16.69,-18.83,-20.83,0,*42
1532156563.94,63109,18.5,74036.8,16.69,-17.87,-19.81,0,*40
1532156565.19,63110,18.5,74034.0,16.71,-17.21,-19.03,0,*47
1532156566.47,63111,18.5,74034.8,16.71,-16.17,-18.01,0,*41
1532156567.7,63112,18.5,74036.5,16.75,-16.89,-18.69,0,*4F
1532156568.96,63113,18.5,74036.5,16.75,-17.17,-19.13,0,*44
1532156570.22,63114,18.5,74032.8,16.75,-16.69,-18.69,0,*47
1532156571.47,63115,18.5,74032.5,16.77,-15.95,-18.01,0,*4A
1532156572.72,63116,18.5,74034.5,16.81,-16.31,-18.41,0,*49
1532156573.95,63117,18.5,74036.8,16.81,-15.75,-17.69,0,*4E
1532156575.24,63118,18.5,74038.5,16.85,-16.13,-18.35,0,*40
1532156576.49,63119,18.5,74034.3,16.85,-16.17,-18.41,0,*46
1532156577.77,63120,18.5,74034.8,16.85,-18.35,-20.53,0,*4A
1532156579.02,63121,18.5,74036.0,16.85,-19.03,-21.03,0,*4B
1532156580.25,63122,18.5,74034.8,16.85,-17.49,-19.47,0,*43
1532156581.49,63123,18.5,74034.5,16.83,-17.97,-19.95,0,*48
1532156582.74,63124,18.5,74038.0,16.83,-20.19,-22.21,0,*4A
1532156583.96,63125,18.5,74034.5,16.83,-18.99,-20.89,0,*48
1532156585.21,63126,18.5,74034.3,16.81,-20.15,-22.11,0,*45
1532156586.5,63127,18.5,74034.3,16.77,-18.59,-20.49,0,*41
1532156587.78,63128,18.5,74036.3,16.77,-19.41,-21.53,0,*4C
1532156589.02,63129,18.5,74034.8,16.75,-20.35,-22.27,0,*46
1532156590.3,63130,18.5,74036.8,16.75,-20.35,-21.83,0,*43
1532156591.54,63131,18.5,74038.8,16.73,-19.13,-20.53,0,*46
1532156592.74,63132,18.5,74034.5,16.73,-17.73,-18.99,0,*40
1532156594.0,63133,18.5,74032.8,16.73,-18.35,-19.57,0,*4F
1532156595.2,63134,18.5,74036.8,16.73,-18.65,-19.91,0,*47
1532156596.44,63135,18.5,74038.3,16.73,-18.25,-19.57,0,*48
1532156597.72,63136,18.5,74034.3,16.75,-17.79,-19.57,0,*4B
1532156598.97,63137,18.5,74038.8,16.75,-18.11,-19.81,0,*40
1532156600.2,63138,18.5,74036.8,16.73,-17.03,-18.69,0,*42
1532156601.46,63139,18.5,74036.3,16.75,-17.03,-18.65,0,*49
1532156602.69,63140,18.5,74038.5,16.75,-18.83,-20.69,0,*47
1532156603.97,63141,18.5,74036.3,16.75,-19.41,-21.33,0,*47
1532156605.25,63142,18.5,74036.5,16.75,-18.35,-20.19,0,*4F
1532156606.51,63143,18.5,74038.8,16.75,-18.21,-20.19,0,*4B
1532156607.74,63144,18.5,74038.3,16.73,-19.03,-21.03,0,*41
1532156608.99,63145,18.5,74036.8,16.73,-18.89,-20.79,0,*4F
1532156610.27,63146,18.5,74034.5,16.75,-19.57,-21.57,0,*45
1532156611.55,63147,18.5,74038.0,16.71,-19.31,-21.03,0,*41
1532156612.82,63148,18.5,74036.8,16.71,-19.61,-21.17,0,*4E
1532156614.08,63149,18.5,74036.0,16.71,-18.93,-20.59,0,*48
1532156615.37,63150,18.5,74034.3,16.71,-18.93,-20.53,0,*4A
1532156616.58,63151,18.5,74036.8,16.69,-19.07,-20.59,0,*44
1532156617.79,63152,18.5,74032.8,16.69,-18.41,-19.75,0,*40
1532156619.04,63153,18.5,74038.8,16.69,-19.65,-21.03,0,*4C
1532156620.24,63154,18.5,74036.3,16.69,-19.75,-21.09,0,*40
1532156621.49,63155,18.5,74038.3,16.69,-18.59,-19.65,0,*4F
1532156622.75,63156,18.5,74034.5,16.67,-18.99,-20.15,0,*43
1532156623.98,63157,18.5,74036.5,16.67,-18.49,-19.71,0,*47
1532156625.21,63158,18.5,74036.3,16.69,-19.81,-20.93,0,*45
1532156626.47,63159,18.5,74036.8,16.65,-19.41,-20.49,0,*43
1532156627.7,63160,18.5,74036.8,16.65,-21.13,-22.31,0,*48
1532156628.96,63161,18.5,74036.0,16.63,-19.47,-20.53,0,*43
1532156630.23,63162,18.5,74036.3,16.63,-19.23,-20.15,0,*40
1532156631.46,63163,18.5,74038.5,16.63,-19.07,-19.99,0,*49
1532156632.67,63164,18.5,74036.0,16.61,-20.43,-21.47,0,*4E
1532156633.94,63165,18.5,74036.3,16.59,-20.43,-21.67,0,*46
1532156635.17,63166,18.5,74036.5,16.59,-17.83,-19.13,0,*45
1532156636.41,63167,18.5,74042.0,16.61,-18.31,-19.75,0,*49
1532156637.61,63168,18.5,74038.3,16.61,-18.25,-19.75,0,*43
1532156638.82,63169,18.5,74040.0,16.61,-18.69,-20.39,0,*48
1532156640.06,63170,18.5,74036.3,16.59,-18.49,-20.43,0,*44
1532156641.34,63171,18.5,74038.5,16.59,-18.89,-20.79,0,*40
1532156642.61,63172,18.5,74038.8,16.55,-19.27,-21.43,0,*42
1532156643.84,63173,18.5,74038.8,16.59,-17.87,-19.99,0,*47
1532156645.1,63174,18.5,74038.0,16.59,-17.97,-19.99,0,*41
1532156646.36,63175,18.5,74038.5,16.63,-17.93,-20.09,0,*4E
1532156647.59,63176,18.5,74038.8,16.63,-17.35,-19.37,0,*46
1532156648.82,63177,18.5,74038.8,16.63,-18.25,-20.29,0,*4C
1532156650.07,63178,18.5,74036.8,16.63,-18.45,-20.53,0,*48
1532156651.31,63179,18.5,74036.0,16.63,-18.41,-20.59,0,*47
1532156652.54,63180,18.5,74040.5,16.63,-18.69,-20.69,0,*48
1532156653.77,63181,18.5,74038.0,16.65,-18.21,-20.35,0,*4A
1532156654.98,63182,18.5,74040.8,16.65,-18.11,-20.09,0,*45
1532156656.23,63183,18.5,74038.8,16.63,-19.75,-21.67,0,*48
1532156657.51,63184,18.5,74040.3,16.63,-18.89,-20.99,0,*4D
1532156658.76,63185,18.5,74038.3,16.61,-19.65,-21.53,0,*4A
1532156660.02,63186,18.5,74036.0,16.63,-18.01,-19.99,0,*45
1532156661.27,63187,18.5,74034.8,16.65,-17.79,-19.61,0,*45
1532156662.52,63188,18.5,74040.8,16.65,-17.07,-18.93,0,*4F
1532156663.78,63189,18.5,74036.3,16.67,-17.25,-19.13,0,*45
1532156665.04,63190,18.5,74036.0,16.67,-17.73,-19.65,0,*4F
1532156666.27,63191,18.5,74038.5,16.69,-18.31,-20.29,0,*4B
1532156667.5,63192,18.5,74038.3,16.69,-18.01,-19.99,0,*4A
1532156668.73,63193,18.5,74036.8,16.69,-17.55,-19.37,0,*41
1532156669.96,63194,18.5,74038.8,16.69,-17.69,-19.61,0,*4A
1532156671.21,63195,18.5,74036.8,16.71,-17.55,-19.37,0,*4E
1532156672.49,63196,18.5,74036.3,16.71,-17.79,-19.61,0,*40
1532156673.74,63197,18.5,74036.8,16.71,-17.55,-19.47,0,*4B
1532156674.94,63198,18.5,74034.5,16.73,-16.45,-18.25,0,*43
1532156676.2,63199,18.5,74036.0,16.75,-16.13,-18.07,0,*47
1532156677.46,63200,18.5,74038.0,16.77,-16.69,-18.49,0,*41
1532156678.72,63201,18.5,74036.3,16.81,-15.75,-17.55,0,*45
1532156679.94,63202,18.5,74038.8,16.83,-16.03,-17.93,0,*4C
1532156681.16,63203,18.5,74034.3,16.87,-15.99,-17.93,0,*49
1532156682.39,63204,18.5,74034.0,16.87,-17.11,-18.99,0,*49
1532156683.62,63205,18.5,74036.0,16.87,-16.89,-18.93,0,*42
1532156684.82,63206,18.5,74034.0,16.91,-16.45,-18.25,0,*4B
1532156686.07,63207,18.5,74034.8,16.91,-15.81,-17.55,0,*49
1532156687.35,63208,18.5,74034.8,16.93,-16.27,-17.93,0,*41
1532156688.6,63209,18.5,74034.5,16.95,-16.09,-17.93,0,*4A
1532156689.83,63210,18.5,74036.0,16.97,-16.37,-18.17,0,*4E
1532156691.1,63211,18.5,74032.8,16.97,-16.23,-17.93,0,*49
1532156692.31,63212,18.5,74032.3,16.99,-15.95,-17.73,0,*44
1532156693.53,63213,18.5,74034.8,17.01,-15.63,-17.31,0,*4A
1532156694.8,63214,18.5,74032.8,17.01,-15.43,-17.17,0,*4B
1532156696.0,63215,18.5,74032.5,17.07,-15.63,-17.31,0,*4A
1532156697.22,63216,18.5,74034.0,17.07,-15.25,-17.25,0,*4E
1532156698.45,63217,18.5,74034.5,17.09,-14.65,-16.69,0,*4D
1532156699.75,63218,18.5,74034.0,17.11,-14.47,-17.07,0,*42
1532156701.01,63219,18.5,74034.0,17.11,-15.49,-18.31,0,*46
1532156702.26,63220,18.5,74036.0,17.13,-14.83,-17.93,0,*4E
1532156703.47,63221,18.5,74036.0,17.13,-14.89,-18.07,0,*47
1532156704.69,63222,18.5,74034.8,17.15,-15.11,-18.49,0,*48
1532156705.94,63223,18.5,74036.3,17.15,-14.79,-18.41,0,*4E
1532156707.2,63224,18.5,74038.5,17.15,-15.07,-18.55,0,*44
1532156708.41,63225,18.5,74036.5,17.15,-15.11,-18.25,0,*45
1532156709.64,63226,18.5,74036.0,17.17,-14.11,-17.03,0,*4E
1532156710.83,63227,18.5,74036.0,17.17,-14.69,-17.73,0,*47
1532156712.08,63228,18.5,74038.8,17.17,-14.79,-17.93,0,*47
1532156713.3,63229,18.5,74042.3,17.19,-15.07,-18.17,0,*43
1532156714.55,63230,18.5,74036.8,17.19,-15.07,-18.31,0,*4F
1532156715.78,63231,18.5,74040.3,17.17,-16.03,-19.41,0,*41
1532156717.02,63232,18.5,74034.3,17.19,-17.31,-20.79,0,*4D
1532156718.22,63233,18.5,74038.3,17.17,-18.79,-22.37,0,*49
1532156719.46,63234,18.5,74034.5,17.13,-19.13,-22.73,0,*47
1532156720.69,63235,18.5,74036.5,17.09,-19.23,-22.67,0,*4B
1532156721.89,63236,18.5,74032.3,17.07,-19.07,-22.41,0,*44
1532156723.17,63237,18.5,74036.3,17.05,-19.31,-22.77,0,*47
1532156724.4,63238,18.5,74042.0,16.99,-18.45,-21.57,0,*4F
1532156725.63,63239,18.5,74038.5,16.99,-18.41,-21.57,0,*4A
1532156726.83,63240,18.5,74042.5,16.95,-18.79,-21.77,0,*41
1532156728.09,63241,18.5,74038.0,16.97,-18.01,-20.93,0,*46
1532156729.33,63242,18.5,74036.8,16.91,-17.55,-20.59,0,*4B
1532156730.56,63243,18.5,74036.5,16.91,-17.11,-19.99,0,*4C
1532156731.77,63244,18.5,74036.5,16.91,-17.73,-20.43,0,*42
1532156733.0,63245,18.5,74036.0,16.91,-18.17,-20.79,0,*47
1532156734.26,63246,18.5,74038.3,16.89,-17.59,-19.99,0,*4C
1532156735.49,63247,18.5,74038.0,16.89,-16.37,-18.49,0,*48
1532156736.75,63248,18.5,74034.5,16.91,-15.57,-17.55,0,*49
1532156737.97,63249,18.5,74032.5,16.93,-15.15,-17.31,0,*4E
1532156739.17,63250,18.5,74036.3,16.95,-14.69,-16.75,0,*4B
1532156740.45,63251,18.5,74038.5,16.97,-15.85,-18.01,0,*46
1532156741.66,63252,18.5,74038.8,16.99,-16.37,-18.45,0,*41
1532156742.87,63253,18.5,74036.5,17.01,-16.93,-19.03,0,*4D
1532156744.14,63254,18.5,74038.8,17.01,-17.55,-19.81,0,*4B
1532156745.41,63255,18.5,74032.8,17.01,-17.63,-19.81,0,*4F
1532156746.68,63256,18.5,74038.0,17.01,-15.89,-17.63,0,*48
1532156747.96,63257,18.5,74034.3,17.01,-15.85,-17.79,0,*4E
1532156749.16,63258,18.5,74036.0,17.07,-15.99,-17.87,0,*4B
1532156750.38,63259,18.5,74036.5,17.05,-16.79,-18.83,0,*4E
1532156751.58,63260,18.5,74038.8,17.07,-15.71,-17.35,0,*4F
1532156752.82,63261,18.5,74038.0,17.09,-16.17,-17.87,0,*4A
1532156754.08,63262,18.5,74036.5,17.11,-15.49,-17.07,0,*40
1532156755.34,63263,18.5,74034.3,17.11,-15.43,-16.93,0,*47
1532156756.59,63264,18.5,74036.5,17.15,-15.43,-16.89,0,*4F
1532156757.87,63265,18.5,74036.0,17.15,-15.85,-17.59,0,*48
1532156759.12,63266,18.5,74036.3,17.17,-16.31,-18.01,0,*47
1532156760.34,63267,18.5,74038.5,17.17,-15.95,-17.59,0,*49
1532156761.58,63268,18.5,74042.0,17.17,-14.51,-16.59,0,*4E
1532156762.83,63269,18.5,74038.8,17.19,-14.37,-16.23,0,*4C
1532156764.07,63270,18.5,74038.3,17.21,-16.51,-18.11,0,*42
1532156765.27,63271,18.5,74038.8,17.21,-16.37,-18.17,0,*45
1532156766.5,63272,18.5,74036.8,17.23,-17.49,-19.37,0,*4F
1532156767.71,63273,18.5,74038.0,17.21,-18.41,-19.95,0,*43
1532156768.97,63274,18.5,74038.5,17.21,-16.23,-17.41,0,*49
1532156770.2,63275,18.5,74036.8,17.21,-16.17,-17.49,0,*47
1532156771.43,63276,18.5,74034.0,17.21,-16.23,-17.83,0,*45
1532156772.68,63277,18.5,74038.3,17.21,-17.25,-18.89,0,*46
1532156773.9,63278,18.5,74038.3,17.21,-17.11,-18.83,0,*44
1532156775.19,63279,18.5,74038.5,17.23,-16.65,-18.31,0,*4C
1532156776.41,63280,18.5,74036.8,17.23,-16.93,-18.45,0,*40
1532156777.67,63281,18.5,74034.5,17.23,-16.51,-18.07,0,*49
1532156778.91,63282,18.5,74036.8,17.23,-17.25,-18.83,0,*44
1532156780.16,63283,18.5,74036.0,17.23,-17.21,-18.83,0,*41
1532156781.42,63284,18.5,74034.8,17.23,-16.75,-18.31,0,*4F
1532156782.68,63285,18.5,74036.3,17.23,-17.21,-18.73,0,*48
1532156783.92,63286,18.5,74032.8,17.21,-16.89,-18.31,0,*4C
1532156785.14,63287,18.5,74036.5,17.23,-16.79,-18.17,0,*44
1532156786.4,63288,18.5,74038.5,17.23,-17.07,-18.45,0,*44
1532156787.62,63289,18.5,74036.0,17.21,-18.11,-19.31,0,*4D
1532156788.87,63290,18.5,74034.8,17.23,-18.25,-19.23,0,*43
1532156790.07,63291,18.5,74036.3,17.21,-18.73,-19.07,0,*45
1532156791.29,63292,18.5,74034.8,17.21,-17.79,-17.69,0,*45
1532156792.58,63293,18.5,74034.8,17.19,-17.41,-17.11,0,*4B
1532156793.83,63294,18.5,74032.8,17.19,-17.55,-16.97,0,*46
1532156795.08,63295,18.5,74038.5,17.19,-16.51,-15.63,0,*4A
1532156796.34,63296,18.5,74036.3,17.19,-17.59,-16.41,0,*43
1532156797.56,63297,18.5,74034.5,17.17,-18.65,-17.17,0,*4E
1532156798.85,63298,18.5,74036.8,17.15,-17.17,-14.97,0,*42
1532156800.11,63299,18.5,74036.8,17.15,-14.33,-12.53,0,*48
1532156801.33,63300,18.5,74036.0,17.17,-13.07,-12.35,0,*4B
1532156802.53,63301,18.5,74038.5,17.17,-12.93,-13.65,0,*42
1532156803.78,63302,18.5,74036.3,17.19,-11.19,-13.61,0,*4A
1532156805.03,63303,18.5,74040.8,17.19,-12.21,-15.29,0,*49
1532156806.28,63304,18.5,74042.5,17.19,-12.79,-15.95,0,*44
1532156807.53,63305,18.5,74040.3,17.17,-15.35,-17.63,0,*4F
1532156808.78,63306,18.5,74036.8,17.19,-13.61,-15.07,0,*45
1532156810.03,63307,18.5,74036.8,17.17,-14.97,-16.09,0,*49
1532156811.25,63308,18.5,74038.8,17.17,-16.31,-16.97,0,*4F
1532156812.48,63309,18.5,74038.8,17.17,-14.83,-16.75,0,*49
1532156813.71,63310,18.5,74040.5,17.17,-14.11,-15.57,0,*49
1532156814.94,63311,18.5,74038.0,17.17,-12.35,-14.19,0,*43
1532156816.19,63312,18.5,74040.3,17.19,-14.61,-16.69,0,*4C
1532156817.46,63313,18.5,74036.3,17.19,-14.93,-17.17,0,*48
1532156818.7,63314,18.5,74038.8,17.17,-17.59,-19.31,0,*4E
1532156819.93,63315,18.5,74040.0,17.17,-15.85,-16.83,0,*4A
1532156821.19,63316,18.5,74042.0,17.17,-14.83,-13.97,0,*4E
1532156822.44,63317,18.5,74038.8,17.17,-12.79,-11.29,0,*4B
1532156823.68,63318,18.5,74040.0,17.17,-13.37,-12.65,0,*44
1532156824.95,63319,18.5,74042.0,17.19,-14.15,-13.33,0,*4E
1532156826.17,63320,18.5,74042.0,17.19,-14.37,-13.73,0,*40
1532156827.4,63321,18.5,74036.3,17.19,-13.93,-13.15,0,*48
1532156828.64,63322,18.5,74040.3,17.23,-12.43,-11.77,0,*48
1532156829.88,63323,18.5,74038.3,17.21,-14.23,-13.87,0,*46
1532156831.16,63324,18.5,74042.3,17.23,-11.63,-11.89,0,*4E
1532156832.39,63325,18.5,74040.5,17.23,-11.01,-12.43,0,*4E
1532156833.62,63326,18.5,74038.3,17.29,-11.23,-12.61,0,*47
1532156834.89,63327,18.5,74042.0,17.29,-10.67,-12.35,0,*46
1532156836.15,63328,18.5,74042.0,17.35,-11.93,-13.55,0,*49
1532156837.4,63329,18.5,74042.0,17.35,-11.97,-13.65,0,*4F
1532156838.64,63330,18.5,74040.3,17.37,-14.05,-15.75,0,*4C
1532156839.87,63331,18.5,74040.3,17.39,-14.11,-15.99,0,*44
1532156841.15,63332,18.5,74040.0,17.35,-16.17,-17.93,0,*47
1532156842.4,63333,18.5,74038.5,17.35,-17.21,-18.79,0,*49
1532156843.66,63334,18.5,74040.0,17.33,-16.65,-17.97,0,*46
1532156844.92,63335,18.5,74042.5,17.31,-15.07,-15.81,0,*47
1532156846.17,63336,18.5,74038.5,17.33,-16.23,-16.65,0,*4A
1532156847.45,63337,18.5,74038.5,17.31,-16.69,-16.51,0,*40
1532156848.68,63338,18.5,74042.5,17.29,-15.39,-14.19,0,*4E
1532156849.94,63339,18.5,74038.8,17.31,-13.19,-11.89,0,*4E
1532156851.19,63340,18.5,74036.5,17.31,-12.39,-11.77,0,*42
1532156852.41,63341,18.5,74040.8,17.33,-10.79,-11.19,0,*4F
1532156853.64,63342,18.5,74044.0,17.37,-12.07,-13.07,0,*4E
1532156854.9,63343,18.5,74044.3,17.35,-13.51,-14.55,0,*4F
1532156856.13,63344,18.5,74042.0,17.35,-13.69,-14.37,0,*47
1532156857.37,63345,18.5,74042.0,17.37,-13.23,-14.01,0,*4F
1532156858.57,63346,18.5,74042.0,17.37,-13.15,-14.37,0,*4C
1532156859.8,63347,18.5,74040.3,17.37,-12.79,-14.65,0,*41
1532156861.03,63348,18.5,74038.8,17.37,-11.81,-14.65,0,*4A
1532156862.26,63349,18.5,74036.3,17.37,-10.93,-13.87,0,*42
1532156863.46,63350,18.5,74038.8,17.37,-12.03,-14.65,0,*4A
1532156864.72,63351,18.5,74040.0,17.39,-12.39,-14.47,0,*4C
1532156865.97,63352,18.5,74042.0,17.39,-12.79,-14.11,0,*48
1532156867.22,63353,18.5,74038.3,17.41,-11.97,-12.75,0,*41
1532156868.46,63354,18.5,74042.5,17.45,-10.71,-11.15,0,*4E
1532156869.67,63355,18.5,74038.0,17.49,-9.89,-10.71,0,*7F
1532156870.92,63356,18.5,74042.5,17.51,-9.53,-10.23,0,*75
1532156872.17,63357,18.5,74040.8,17.57,-9.45,-10.41,0,*71
1532156873.42,63358,18.5,74040.5,17.59,-9.49,-10.53,0,*7F
1532156874.62,63359,18.5,74038.8,17.61,-8.75,-9.67,0,*44
1532156875.85,63360,18.5,74038.0,17.63,-8.85,-9.79,0,*4C
1532156877.06,63361,18.5,74040.8,17.67,-8.37,-9.23,0,*4F
1532156878.28,63362,18.5,74036.8,17.69,-7.53,-7.77,0,*40
1532156879.52,63363,18.5,74042.3,17.75,-7.61,-7.35,0,*4B
1532156880.77,63364,18.5,74042.0,17.77,-7.27,-6.69,0,*44
1532156882.03,63365,18.5,74042.5,17.77,-7.69,-7.05,0,*44
1532156883.23,63366,18.5,74038.8,17.79,-8.21,-7.87,0,*40
1532156884.47,63367,18.5,74036.8,17.79,-7.99,-8.11,0,*4D
1532156885.67,63368,18.5,74042.0,17.75,-8.41,-8.93,0,*4E
1532156886.86,63369,18.5,74038.5,17.75,-8.25,-8.71,0,*41
1532156888.06,63370,18.5,74038.5,17.69,-8.45,-9.01,0,*44
1532156889.27,63371,18.5,74040.3,17.69,-6.97,-7.53,0,*4D
1532156890.49,63372,18.5,74040.5,17.65,-6.85,-7.73,0,*43
1532156891.68,63373,18.5,74042.0,17.65,-7.49,-9.19,0,*41
1532156892.95,63374,18.5,74044.0,17.63,-7.77,-9.61,0,*42
1532156894.16,63375,18.5,74042.3,17.61,-8.85,-10.93,0,*76
1532156895.41,63376,18.5,74042.5,17.57,-9.37,-11.97,0,*7D
1532156896.61,63377,18.5,74044.3,17.57,-9.89,-12.93,0,*7E
1532156897.83,63378,18.5,74044.3,17.51,-10.49,-13.55,0,*48
1532156899.07,63379,18.5,74046.5,17.51,-10.53,-13.83,0,*49
1532156900.3,63380,18.5,74046.3,17.45,-10.79,-14.37,0,*4A
1532156901.58,63381,18.5,74042.0,17.43,-11.29,-14.83,0,*46
1532156902.81,63382,18.5,74042.0,17.43,-12.89,-16.45,0,*44
1532156904.04,63383,18.5,74046.0,17.39,-14.23,-18.17,0,*47
1532156905.29,63384,18.5,74042.8,17.35,-15.15,-19.31,0,*4D
1532156906.55,63385,18.5,74042.3,17.31,-15.07,-19.57,0,*4B